Simultaneous Nadir Overpasses (SNOs) Predictions

Prediction of SNOs between LANDSAT-8 and NOAA-19 Satellite Orbit:

Table of predicted SNOs for the next 14.0 days since TLE Epoch: 5/22/2020
Index Date (LANDSAT-8) Time (LANDSAT-8) Lat,Lon (LANDSAT-8) SZA (LANDSAT-8 ) Date (NOAA-19) Time (NOAA-19) Lat,Lon (NOAA-19) SZA (NOAA-19 ) Distance(km) Time Diff (sec)
1 05/24/2020 09:10:30 79.73, 67.87 59.94 05/24/2020 09:09:17 79.71, 67.82 59.90 2.44 73
2 05/24/2020 09:59:58 -79.70,-124.72 120.11 05/24/2020 10:00:12 -79.70,-124.81 120.11 1.68 14
3 05/26/2020 15:33:42 79.70, -28.20 59.49 05/26/2020 15:33:35 79.70, -28.07 59.51 2.86 7
4 05/28/2020 21:07:26 -79.74, 68.67 120.82 05/28/2020 21:06:49 -79.71, 68.65 120.86 2.94 37
5 05/28/2020 21:56:53 79.69,-124.01 59.12 05/28/2020 21:57:53 79.70,-123.99 59.14 0.67 60
6 05/31/2020 02:41:10 79.72, 165.14 58.83 05/31/2020 02:40:12 79.74, 165.09 58.82 1.85 58
7 05/31/2020 03:30:38 -79.70, -27.41 121.21 05/31/2020 03:31:08 -79.72, -27.45 121.19 2.62 30
8 06/02/2020 09:04:21 79.72, 69.31 58.52 06/02/2020 09:04:29 79.71, 69.41 58.53 2.21 8
9 06/04/2020 14:38:06 -79.72, 165.91 121.75 06/04/2020 14:37:45 -79.73, 165.91 121.74 1.44 21




NCC Satellite Simultaneous Nadir Overpasses (SNOs) Prediction Service
